When you browse on this site, cookies collect data to enhance your experience and personalize the content and advertising you see.
Visit our Privacy Policy to learn more. By continuing to use the site, you agree to this use of cookies and data.
  • In Österreich
  • Länderverzeichnis
  • Für 7 Tage
  • Wassertemperatur
  • Wetterkarte
  • News
  • Widgets
  • user-avatar
    Anmelden

    Stündliche Wetter Bonn

    Heute, 30 Mai, Samstag

    Zeit Temperatur Niederschläge Wind Luftdruck Luftfeuchtigkeit
    00:00 +12°C° 0 mm 2 m/S 762 mmHg 71%
    01:00 +12°C° 0 mm 2 m/S 762 mmHg 73%
    02:00 +10°C° 0 mm 2 m/S 762 mmHg 75%
    03:00 +11°C° 0 mm 1 m/S 762 mmHg 78%
    04:00 +12°C° 0 mm 2 m/S 762 mmHg 73%
    05:00 +13°C° 0 mm 2 m/S 762 mmHg 69%
    06:00 +15°C° 0 mm 2 m/S 762 mmHg 65%
    07:00 +17°C° 0 mm 2 m/S 762 mmHg 58%
    08:00 +18°C° 0 mm 3 m/S 761 mmHg 52%
    09:00 +20°C° 0 mm 3 m/S 761 mmHg 45%
    10:00 +21°C° 0 mm 3 m/S 761 mmHg 41%
    11:00 +21°C° 0 mm 3 m/S 761 mmHg 38%
    12:00 +22°C° 0 mm 4 m/S 760 mmHg 34%
    13:00 +22°C° 0 mm 4 m/S 760 mmHg 37%
    14:00 +22°C° 0 mm 4 m/S 760 mmHg 39%
    15:00 +21°C° 0 mm 4 m/S 760 mmHg 41%
    16:00 +20°C° 0 mm 4 m/S 760 mmHg 45%
    17:00 +19°C° 0 mm 4 m/S 760 mmHg 49%
    18:00 +18°C° 0 mm 3 m/S 760 mmHg 53%
    19:00 +17°C° 0 mm 3 m/S 760 mmHg 58%
    20:00 +15°C° 0 mm 2 m/S 760 mmHg 63%
    21:00 +13°C° 0 mm 2 m/S 761 mmHg 67%
    22:00 +12°C° 0 mm 2 m/S 761 mmHg 71%
    23:00 +12°C° 0 mm 2 m/S 761 mmHg 75%

    Morgen, 31 Mai, Sonntag

    Zeit Temperatur Niederschläge Wind Luftdruck Luftfeuchtigkeit
    00:00 +11°C° 0 mm 1 m/S 761 mmHg 80%
    01:00 +11°C° 0 mm 1 m/S 761 mmHg 81%
    02:00 +10°C° 0 mm 1 m/S 761 mmHg 82%
    03:00 +10°C° 0 mm 1 m/S 761 mmHg 83%
    04:00 +11°C° 0 mm 1 m/S 761 mmHg 77%
    05:00 +12°C° 0 mm 2 m/S 761 mmHg 71%
    06:00 +14°C° 0 mm 2 m/S 761 mmHg 64%
    07:00 +15°C° 0 mm 2 m/S 761 mmHg 58%
    08:00 +16°C° 0 mm 3 m/S 761 mmHg 51%
    09:00 +18°C° 0 mm 3 m/S 761 mmHg 45%
    10:00 +19°C° 0 mm 3 m/S 760 mmHg 42%
    11:00 +20°C° 0 mm 3 m/S 760 mmHg 39%
    12:00 +21°C° 0 mm 4 m/S 760 mmHg 37%
    13:00 +21°C° 0 mm 4 m/S 760 mmHg 37%
    14:00 +22°C° 0 mm 4 m/S 759 mmHg 38%
    15:00 +22°C° 0 mm 4 m/S 759 mmHg 39%
    16:00 +21°C° 0 mm 3 m/S 759 mmHg 45%
    17:00 +20°C° 0 mm 3 m/S 759 mmHg 51%
    18:00 +19°C° 0 mm 3 m/S 759 mmHg 56%
    19:00 +18°C° 0 mm 3 m/S 760 mmHg 62%
    20:00 +16°C° 0 mm 3 m/S 760 mmHg 67%
    21:00 +14°C° 0 mm 3 m/S 760 mmHg 73%
    22:00 +14°C° 0 mm 2 m/S 760 mmHg 76%
    23:00 +13°C° 0 mm 2 m/S 760 mmHg 80%

    übermorgen, 1 Juni, Montag

    Zeit Temperatur Niederschläge Wind Luftdruck Luftfeuchtigkeit
    00:00 +12°C° 0 mm 2 m/S 761 mmHg 84%
    01:00 +12°C° 0 mm 2 m/S 761 mmHg 85%
    02:00 +11°C° 0 mm 1 m/S 761 mmHg 86%
    03:00 +11°C° 0 mm 1 m/S 760 mmHg 87%
    04:00 +12°C° 0 mm 1 m/S 761 mmHg 82%
    05:00 +13°C° 0 mm 1 m/S 761 mmHg 77%
    06:00 +15°C° 0 mm 1 m/S 761 mmHg 72%
    07:00 +17°C° 0 mm 2 m/S 761 mmHg 65%
    08:00 +19°C° 0 mm 2 m/S 760 mmHg 57%
    09:00 +21°C° 0 mm 3 m/S 760 mmHg 50%
    10:00 +22°C° 0 mm 3 m/S 760 mmHg 47%
    11:00 +24°C° 0 mm 3 m/S 760 mmHg 43%
    12:00 +25°C° 0 mm 4 m/S 759 mmHg 40%
    13:00 +25°C° 0 mm 4 m/S 759 mmHg 39%
    14:00 +25°C° 0 mm 4 m/S 759 mmHg 39%
    15:00 +26°C° 0 mm 4 m/S 759 mmHg 38%
    16:00 +25°C° 0 mm 3 m/S 759 mmHg 44%
    17:00 +24°C° 0 mm 3 m/S 759 mmHg 49%
    18:00 +21°C° 0 mm 3 m/S 759 mmHg 55%
    19:00 +20°C° 0 mm 3 m/S 759 mmHg 61%
    20:00 +18°C° 0 mm 3 m/S 759 mmHg 67%
    21:00 +16°C° 0 mm 3 m/S 760 mmHg 72%
    22:00 +14°C° 0 mm 3 m/S 759 mmHg 74%
    23:00 +15°C° 0 mm 2 m/S 759 mmHg 77%

    2 Juni, Dienstag

    Zeit Temperatur Niederschläge Wind Luftdruck Luftfeuchtigkeit
    00:00 +14°C° 0 mm 2 m/S 759 mmHg 79%
    01:00 +13°C° 0 mm 2 m/S 759 mmHg 81%
    02:00 +13°C° 0 mm 1 m/S 759 mmHg 83%
    03:00 +12°C° 0 mm 1 m/S 759 mmHg 85%
    04:00 +14°C° 0 mm 1 m/S 759 mmHg 79%
    05:00 +15°C° 0 mm 1 m/S 759 mmHg 73%
    06:00 +16°C° 0 mm 1 m/S 759 mmHg 68%
    07:00 +18°C° 0 mm 2 m/S 759 mmHg 61%
    08:00 +20°C° 0 mm 2 m/S 759 mmHg 54%
    09:00 +23°C° 0 mm 2 m/S 758 mmHg 47%
    10:00 +24°C° 0 mm 2 m/S 758 mmHg 44%
    11:00 +25°C° 0 mm 3 m/S 758 mmHg 41%
    12:00 +26°C° 0 mm 3 m/S 757 mmHg 38%
    13:00 +26°C° 0 mm 2 m/S 757 mmHg 38%
    14:00 +26°C° 0 mm 2 m/S 756 mmHg 37%
    15:00 +27°C° 0 mm 2 m/S 755 mmHg 37%
    16:00 +26°C° 0 mm 2 m/S 755 mmHg 43%
    17:00 +25°C° 0 mm 2 m/S 755 mmHg 48%
    18:00 +24°C° 0 mm 2 m/S 754 mmHg 54%
    19:00 +21°C° 0 mm 2 m/S 754 mmHg 58%
    20:00 +19°C° 0 mm 2 m/S 754 mmHg 61%
    21:00 +17°C° 0 mm 2 m/S 754 mmHg 64%
    22:00 +17°C° 0 mm 2 m/S 754 mmHg 67%
    23:00 +16°C° 0 mm 2 m/S 753 mmHg 70%

    3 Juni, Mittwoch

    Zeit Temperatur Niederschläge Wind Luftdruck Luftfeuchtigkeit
    00:00 +15°C° 0 mm 2 m/S 753 mmHg 73%
    01:00 +15°C° 0 mm 2 m/S 753 mmHg 76%
    02:00 +14°C° 0 mm 2 m/S 752 mmHg 78%
    03:00 +14°C° 0 mm 2 m/S 752 mmHg 80%
    04:00 +15°C° 0 mm 2 m/S 752 mmHg 77%
    05:00 +16°C° 0 mm 2 m/S 751 mmHg 74%
    06:00 +17°C° 0 mm 2 m/S 751 mmHg 71%
    07:00 +19°C° 0 mm 2 m/S 751 mmHg 64%
    08:00 +21°C° 0 mm 3 m/S 750 mmHg 57%
    09:00 +23°C° 0 mm 4 m/S 750 mmHg 49%
    10:00 +25°C° 0 mm 4 m/S 750 mmHg 46%
    11:00 +26°C° 0 mm 4 m/S 749 mmHg 43%
    12:00 +27°C° 0 mm 4 m/S 749 mmHg 40%
    13:00 +27°C° 0 mm 4 m/S 748 mmHg 40%
    14:00 +27°C° 0 mm 4 m/S 748 mmHg 39%
    15:00 +27°C° 0 mm 4 m/S 747 mmHg 39%
    16:00 +26°C° 0 mm 4 m/S 747 mmHg 44%
    17:00 +25°C° 0 mm 3 m/S 746 mmHg 49%
    18:00 +25°C° 0 mm 3 m/S 746 mmHg 54%
    19:00 +22°C° 0 mm 3 m/S 746 mmHg 58%
    20:00 +20°C° 0 mm 3 m/S 746 mmHg 62%
    21:00 +19°C° 0 mm 3 m/S 746 mmHg 66%
    22:00 +18°C° 0 mm 3 m/S 746 mmHg 66%
    23:00 +18°C° 0 mm 3 m/S 746 mmHg 66%

    4 Juni, Donnerstag

    Zeit Temperatur Niederschläge Wind Luftdruck Luftfeuchtigkeit
    00:00 +18°C° 0 mm 4 m/S 746 mmHg 66%
    01:00 +17°C° 0 mm 3 m/S 746 mmHg 66%
    02:00 +17°C° 0 mm 3 m/S 745 mmHg 66%
    03:00 +17°C° 0 mm 3 m/S 745 mmHg 65%
    04:00 +17°C° 0.2 mm 3 m/S 745 mmHg 69%
    05:00 +17°C° 0.2 mm 2 m/S 745 mmHg 73%
    06:00 +17°C° 0.2 mm 2 m/S 744 mmHg 77%
    07:00 +17°C° 0.3 mm 3 m/S 744 mmHg 78%
    08:00 +17°C° 0.3 mm 3 m/S 744 mmHg 80%
    09:00 +17°C° 0.3 mm 3 m/S 744 mmHg 82%
    10:00 +18°C° 0.1 mm 4 m/S 744 mmHg 79%
    11:00 +19°C° 0.1 mm 4 m/S 744 mmHg 76%
    12:00 +20°C° 0.1 mm 5 m/S 744 mmHg 74%
    13:00 +19°C° 0.8 mm 4 m/S 744 mmHg 80%
    14:00 +19°C° 0.8 mm 4 m/S 744 mmHg 86%
    15:00 +18°C° 0.8 mm 3 m/S 744 mmHg 92%
    16:00 +18°C° 0.6 mm 3 m/S 744 mmHg 91%
    17:00 +18°C° 0.6 mm 3 m/S 743 mmHg 91%
    18:00 +18°C° 0.6 mm 3 m/S 743 mmHg 91%
    19:00 +17°C° 0 mm 3 m/S 743 mmHg 91%
    20:00 +17°C° 0 mm 3 m/S 743 mmHg 91%
    21:00 +17°C° 0 mm 3 m/S 743 mmHg 91%
    22:00 +17°C° 0 mm 3 m/S 743 mmHg 92%
    23:00 +17°C° 0 mm 3 m/S 743 mmHg 92%
    Mehr zeigen